This demonstration page uses our WeatherBlox Daily Observations layout. Learn more.

Left ArrowRight Arrow

47.50024, -111.30081

Hourly Observations for April 28, 2022

Temp ( °F °C ) Dew Point ( °F °C ) Humidity (%) Winds ( mph kmh ) Pressure ( in mb ) Visibility ( mi km ) Precip ( " mm )
12:53 am 00:53 Clear 36 2.2 19 -7.2 50 50 W 3 6 29.99 1016 10 16 0.00 0.00
1:53 am 01:53 Clear 34 1.1 19 -7.2 54 54 WSW 6 9 29.98 1015 10 16 0.00 0.00
2:53 am 02:53 Clear 31 -0.6 23 -5 72 72 S 9 15 29.99 1016 10 16 0.00 0.00
3:53 am 03:53 Clear 30 -1.1 24 -4.4 79 79 SSW 9 15 29.99 1016 10 16 0.00 0.00
4:53 am 04:53 Clear 30 -1.1 24 -4.4 79 79 SSW 8 13 29.98 1015 10 16 0.00 0.00
5:53 am 05:53 Clear 30 -1.1 24 -4.4 79 79 SSW 9 15 29.99 1016 10 16 0.00 0.00
6:53 am 06:53 Sunny 32 0 25 -3.9 75 75 S 8 13 29.98 1015 10 16 0.00 0.00
7:53 am 07:53 Sunny 39 3.9 28 -2.2 65 65 Calm 29.96 1015 10 16 0.00 0.00
8:53 am 08:53 Sunny 42 5.6 27 -2.8 55 55 VRB 3 6 29.96 1014 10 16 0.00 0.00
9:53 am 09:53 Sunny 47 8.3 26 -3.3 44 44 VRB 3 6 29.94 1014 10 16 0.00 0.00
10:53 am 10:53 Sunny 49 9.4 23 -5 36 36 SSW 3 6 29.93 1013 10 16 0.00 0.00
11:53 am 11:53 Sunny 50 10 24 -4.4 36 36 undefined N/A 29.93 1013 10 16 0.00 0.00
12:53 pm 12:53 Sunny 53 11.7 25 -3.9 34 34 S 8 13 29.87 1012 10 16 0.00 0.00
1:53 pm 13:53 Sunny 54 12.2 25 -3.9 33 33 VRB 5 7 29.84 1011 10 16 0.00 0.00
2:53 pm 14:53 Sunny 55 12.8 24 -4.4 30 30 N 6 9 29.83 1010 10 16 0.00 0.00
3:53 pm 15:53 Partly Cloudy 55 12.8 24 -4.4 30 30 E 8 13 29.81 1009 10 16 0.00 0.00
4:53 pm 16:53 Mostly Sunny 58 14.4 26 -3.3 29 29 NE 8 13 29.78 1008 10 16 0.00 0.00
5:53 pm 17:53 Partly Cloudy 57 13.9 24 -4.4 28 28 E 9 15 29.78 1008 10 16 0.00 0.00
6:53 pm 18:53 Mostly Sunny 55 12.8 25 -3.9 31 31 E 13 20 29.77 1008 10 16 0.00 0.00
7:53 pm 19:53 Mostly Cloudy 52 11.1 28 -2.2 40 40 E 13 20 29.78 1008 10 16 0.00 0.00
8:53 pm 20:53 Mostly Cloudy 48 8.9 34 1.1 58 58 E 14 22 29.79 1009 10 16 0.00 0.00
9:53 pm 21:53 Cloudy 46 7.8 34 1.1 63 63 E 9 15 29.81 1009 10 16 0.00 0.00
10:53 pm 22:53 Cloudy with Light Rain 43 6.1 37 2.8 80 80 E 14 22 29.83 1010 10 16 0.00 0.00
11:53 pm 23:53 Cloudy with Light Rain 40 4.4 36 2.2 86 86 E 16 26 29.85 1011 9 14 0.02 0.51

Powered by AerisWeather